ASTRA 2G

Last updated on Sun Apr 12 2026 00:02:53 GMT+0000 (Coordinated Universal Time)

1 40364U 14089A 26101.31228284 .00000151 00000+0 00000+0 0 9994 2 40364 0.0508 19.2977 0004671 16.7680 304.0759 1.00270647 41294
UTC large
Height (km)
Speed (km/s)
/
Latitude / Longitude
Inclination (degrees)
Orbital Period (minutes)
Azimuth
Elevation
Range (km)
Doppler Factor

Next 0 passes for location: London (51.5072 / 0.1276)

Sorry there are no passes over London.
ASTRA 2G